| time (UTC) | temp F | wind direction | speed MPH | gust MPH | rain 1hr in | rain 24hr in | rain mn in | humidity % | barometer mb |
| 20260831145005 | 65 | 240 | 3.0 | 5.0 | 0.00 | 0.01 | 0.01 | 82 | 1014.4 |
| 20260831144517 | 65 | 232 | 2.0 | 6.0 | 0.00 | 0.01 | 0.01 | 84 | 1014.3 |
| 20260831144510 | 65 | 230 | 2.0 | 4.0 | 0.00 | 0.01 | 0.01 | 84 | 1010.6 |
| 20260831144006 | 64 | 244 | 1.0 | 6.0 | 0.00 | 0.01 | 0.01 | 85 | 1014.4 |
| 20260831143506 | 63 | 236 | 4.0 | 6.0 | 0.00 | 0.01 | 0.01 | 84 | 1014.5 |
| 20260831143021 | 63 | 233 | 3.0 | 6.0 | 0.01 | 0.01 | 0.01 | 84 | 1014.4 |
| 20260831143010 | 63 | 250 | 3.0 | 6.0 | 0.00 | 0.01 | 0.01 | 85 | 1010.7 |
| 20260831142509 | 63 | 229 | 3.0 | 6.0 | 0.01 | 0.01 | 0.01 | 86 | 1014.4 |
| 20260831142006 | 63 | 233 | 4.0 | 6.0 | 0.01 | 0.01 | 0.01 | 85 | 1014.4 |
| 20260831141520 | 62 | 270 | 3.0 | 6.0 | 0.01 | 0.01 | 0.01 | 86 | 1014.3 |
| 20260831141506 | 62 | 245 | 3.0 | 6.0 | 0.01 | 0.01 | 0.01 | 86 | 1010.5 |
| 20260831141008 | 62 | 245 | 2.0 | 5.0 | 0.01 | 0.01 | 0.01 | 86 | 1014.2 |
| 20260831140510 | 61 | 231 | 3.0 | 6.0 | 0.01 | 0.01 | 0.01 | 86 | 1014.2 |
| 20260831140023 | 61 | 248 | 2.0 | 6.0 | 0.01 | 0.01 | 0.01 | 87 | 1014.2 |
| 20260831140007 | 61 | 249 | 1.0 | 6.0 | 0.01 | 0.01 | 0.01 | 87 | 1010.4 |
| 20260831135505 | 61 | 264 | 2.0 | 5.0 | 0.01 | 0.01 | 0.01 | 88 | 1014.3 |
| 20260831135005 | 60 | 242 | 3.0 | 5.0 | 0.01 | 0.01 | 0.01 | 88 | 1014.2 |
| 20260831134512 | 60 | 248 | 3.0 | 4.0 | 0.01 | 0.01 | 0.01 | 89 | 1014.1 |
| 20260831134508 | 60 | 218 | 3.0 | 4.0 | 0.01 | 0.01 | 0.01 | 90 | 1010.2 |
| 20260831134006 | 59 | 240 | 2.0 | 4.0 | 0.01 | 0.01 | 0.01 | 90 | 1013.9 |
| 20260831133509 | 59 | 240 | 3.0 | 5.0 | 0.01 | 0.01 | 0.01 | 90 | 1013.8 |
| 20260831133018 | 59 | 225 | 3.0 | 5.0 | 0.00 | 0.00 | 0.00 | 91 | 1013.9 |
| 20260831133008 | 59 | 231 | 2.0 | 5.0 | 0.00 | 0.00 | 0.00 | 91 | 1010.1 |
| 20260831132510 | 59 | 241 | 1.0 | 3.0 | 0.00 | 0.00 | 0.00 | 91 | 1013.8 |
| 20260831132008 | 59 | 224 | 2.0 | 3.0 | 0.00 | 0.00 | 0.00 | 91 | 1013.6 |
| 20260831131523 | 59 | 228 | 2.0 | 3.0 | 0.00 | 0.00 | 0.00 | 91 | 1013.6 |
| 20260831131501 | 59 | 228 | 1.0 | 3.0 | 0.00 | 0.00 | 0.00 | 92 | 1009.7 |
| 20260831131012 | 58 | 257 | 1.0 | 3.0 | 0.00 | 0.00 | 0.00 | 92 | 1013.6 |
| 20260831130510 | 58 | 252 | 0.0 | 3.0 | 0.00 | 0.00 | 0.00 | 93 | 1013.6 |
| 20260831130101 | 57 | 226 | 2.0 | 3.0 | 0.00 | 0.00 | 0.00 | 93 | 1009.9 |
| 20260831130022 | 57 | 225 | 2.0 | 3.0 | 0.00 | 0.00 | 0.00 | 93 | 1013.6 |
| 20260831125508 | 57 | 195 | 2.0 | 3.0 | 0.00 | 0.00 | 0.00 | 93 | 1013.6 |
| 20260831125009 | 57 | 212 | 1.0 | 3.0 | 0.00 | 0.00 | 0.00 | 94 | 1013.5 |
| 20260831124559 | 56 | 254 | 0.0 | 2.0 | 0.00 | 0.00 | 0.00 | 94 | 1009.7 |
| 20260831124525 | 56 | 253 | 0.0 | 2.0 | 0.00 | 0.00 | 0.00 | 94 | 1013.4 |
| 20260831124005 | 56 | 238 | 0.0 | 0.0 | 0.00 | 0.00 | 0.00 | 94 | 1013.3 |
| 20260831123509 | 56 | 252 | 0.0 | 1.0 | 0.00 | 0.00 | 0.00 | 94 | 1013.1 |
| 20260831123056 | 56 | 271 | 0.0 | 1.0 | 0.00 | 0.00 | 0.00 | 95 | 1009.3 |
| 20260831123012 | 56 | 270 | 0.0 | 1.0 | 0.00 | 0.00 | 0.00 | 94 | 1013.1 |
| 20260831122509 | 56 | 240 | 0.0 | 0.0 | 0.00 | 0.00 | 0.00 | 94 | 1013.0 |
| 20260831122008 | 56 | 238 | 0.0 | 0.0 | 0.00 | 0.00 | 0.00 | 94 | 1012.9 |
| 20260831121606 | 56 | 274 | 0.0 | 0.0 | 0.00 | 0.00 | 0.00 | 94 | 1009.0 |
| 20260831121522 | 56 | 274 | 0.0 | 0.0 | 0.00 | 0.00 | 0.00 | 94 | 1012.8 |
| 20260831121010 | 56 | 315 | 0.0 | 0.0 | 0.00 | 0.00 | 0.00 | 93 | 1012.7 |
| 20260831120512 | 56 | 315 | 0.0 | 0.0 | 0.00 | 0.00 | 0.00 | 93 | 1012.7 |
| 20260831120052 | 57 | 315 | 0.0 | 0.0 | 0.00 | 0.00 | 0.00 | 94 | 1008.8 |
| 20260831120035 | 57 | 315 | 0.0 | 0.0 | 0.00 | 0.00 | 0.00 | 94 | 1012.7 |
| 20260831115510 | 57 | 315 | 0.0 | 0.0 | 0.00 | 0.00 | 0.00 | 94 | 1012.6 |
| 20260831115010 | 57 | 315 | 0.0 | 0.0 | 0.00 | 0.00 | 0.00 | 94 | 1012.5 |
| 20260831114550 | 57 | 315 | 0.0 | 0.0 | 0.00 | 0.00 | 0.00 | 94 | 1008.5 |
| 20260831114533 | 57 | 315 | 0.0 | 0.0 | 0.00 | 0.00 | 0.00 | 93 | 1012.3 |
| 20260831114010 | 57 | 315 | 0.0 | 0.0 | 0.00 | 0.00 | 0.00 | 94 | 1012.1 |
| 20260831113510 | 57 | 315 | 0.0 | 0.0 | 0.00 | 0.00 | 0.00 | 94 | 1012.1 |
| 20260831113055 | 57 | 315 | 0.0 | 0.0 | 0.00 | 0.00 | 0.00 | 94 | 1008.4 |
| 20260831113027 | 57 | 315 | 0.0 | 0.0 | 0.00 | 0.00 | 0.00 | 94 | 1012.2 |
| 20260831112507 | 57 | 315 | 0.0 | 0.0 | 0.00 | 0.00 | 0.00 | 94 | 1012.1 |
| 20260831112007 | 58 | 315 | 0.0 | 0.0 | 0.00 | 0.00 | 0.00 | 94 | 1012.2 |
| 20260831111547 | 58 | 315 | 0.0 | 0.0 | 0.00 | 0.00 | 0.00 | 94 | 1008.3 |
| 20260831111517 | 58 | 315 | 0.0 | 0.0 | 0.00 | 0.00 | 0.00 | 94 | 1012.2 |
| 20260831111011 | 58 | 315 | 0.0 | 0.0 | 0.00 | 0.00 | 0.00 | 94 | 1012.2 |
| 20260831110514 | 58 | 315 | 0.0 | 0.0 | 0.00 | 0.00 | 0.00 | 93 | 1012.1 |
| 20260831110044 | 58 | 315 | 0.0 | 1.0 | 0.00 | 0.00 | 0.00 | 94 | 1008.1 |
| 20260831110023 | 58 | 315 | 0.0 | 1.0 | 0.00 | 0.00 | 0.00 | 93 | 1012.0 |
| 20260831105511 | 58 | 315 | 0.0 | 1.0 | 0.00 | 0.00 | 0.00 | 93 | 1012.0 |
| 20260831105012 | 58 | 318 | 0.0 | 2.0 | 0.00 | 0.01 | 0.00 | 93 | 1011.9 |
| 20260831104551 | 58 | 318 | 0.0 | 2.0 | 0.00 | 0.01 | 0.00 | 93 | 1008.0 |
| 20260831104526 | 58 | 318 | 0.0 | 2.0 | 0.00 | 0.01 | 0.00 | 93 | 1011.9 |
| 20260831104009 | 58 | 318 | 1.0 | 2.0 | 0.00 | 0.01 | 0.00 | 93 | 1011.8 |
| 20260831103516 | 59 | 314 | 1.0 | 3.0 | 0.00 | 0.01 | 0.00 | 93 | 1011.8 |
| 20260831103040 | 59 | 313 | 0.0 | 3.0 | 0.00 | 0.01 | 0.00 | 93 | 1007.7 |
| 20260831103027 | 59 | 315 | 0.0 | 3.0 | 0.00 | 0.01 | 0.00 | 92 | 1011.7 |
| 20260831102513 | 59 | 281 | 2.0 | 4.0 | 0.00 | 0.01 | 0.00 | 92 | 1011.6 |
| 20260831102015 | 59 | 309 | 2.0 | 5.0 | 0.00 | 0.01 | 0.00 | 92 | 1011.5 |
| 20260831101544 | 60 | 307 | 2.0 | 5.0 | 0.00 | 0.01 | 0.00 | 93 | 1007.7 |
| 20260831101533 | 60 | 316 | 3.0 | 5.0 | 0.00 | 0.01 | 0.00 | 92 | 1011.5 |
| 20260831101007 | 60 | 308 | 2.0 | 4.0 | 0.00 | 0.01 | 0.00 | 92 | 1011.4 |
| 20260831100505 | 61 | 300 | 2.0 | 4.0 | 0.00 | 0.01 | 0.00 | 92 | 1011.1 |
| 20260831100033 | 61 | 6 | 1.0 | 3.0 | 0.00 | 0.01 | 0.00 | 93 | 1007.3 |
| 20260831100018 | 61 | 331 | 1.0 | 3.0 | 0.00 | 0.01 | 0.00 | 92 | 1011.0 |
| 20260831095510 | 61 | 304 | 1.0 | 3.0 | 0.00 | 0.01 | 0.00 | 92 | 1010.9 |
| 20260831095013 | 61 | 304 | 0.0 | 4.0 | 0.00 | 0.01 | 0.00 | 92 | 1010.9 |
| 20260831094539 | 62 | 313 | 1.0 | 4.0 | 0.00 | 0.01 | 0.00 | 93 | 1007.1 |
| 20260831094530 | 62 | 316 | 2.0 | 4.0 | 0.00 | 0.01 | 0.00 | 93 | 1010.9 |
| 20260831094012 | 62 | 316 | 1.0 | 3.0 | 0.00 | 0.01 | 0.00 | 92 | 1010.9 |
| 20260831093516 | 62 | 317 | 1.0 | 3.0 | 0.00 | 0.01 | 0.00 | 92 | 1011.0 |
| 20260831093038 | 62 | 314 | 1.0 | 2.0 | 0.00 | 0.01 | 0.00 | 93 | 1011.0 |
| 20260831093034 | 62 | 297 | 1.0 | 3.0 | 0.00 | 0.01 | 0.00 | 93 | 1007.1 |
| 20260831092514 | 62 | 311 | 0.0 | 2.0 | 0.00 | 0.01 | 0.00 | 92 | 1010.9 |
| 20260831092013 | 62 | 311 | 0.0 | 0.0 | 0.00 | 0.01 | 0.00 | 92 | 1010.9 |
| 20260831091539 | 63 | 311 | 0.0 | 0.0 | 0.00 | 0.01 | 0.00 | 92 | 1006.8 |
| 20260831091525 | 63 | 311 | 0.0 | 0.0 | 0.00 | 0.01 | 0.00 | 92 | 1010.8 |
| 20260831091015 | 63 | 311 | 0.0 | 2.0 | 0.00 | 0.01 | 0.00 | 92 | 1010.8 |
| 20260831090515 | 63 | 311 | 0.0 | 3.0 | 0.00 | 0.01 | 0.00 | 91 | 1010.7 |
| 20260831090027 | 63 | 319 | 2.0 | 3.0 | 0.00 | 0.01 | 0.00 | 91 | 1010.7 |
| 20260831090023 | 63 | 329 | 1.0 | 3.0 | 0.00 | 0.01 | 0.00 | 92 | 1006.6 |
| 20260831085508 | 64 | 313 | 1.0 | 3.0 | 0.00 | 0.01 | 0.00 | 91 | 1010.8 |
| 20260831085009 | 64 | 319 | 1.0 | 3.0 | 0.00 | 0.01 | 0.00 | 91 | 1010.8 |
| 20260831084542 | 64 | 316 | 1.0 | 4.0 | 0.00 | 0.02 | 0.00 | 92 | 1006.7 |
| 20260831084524 | 64 | 356 | 1.0 | 4.0 | 0.00 | 0.01 | 0.00 | 91 | 1010.8 |
| 20260831084011 | 64 | 319 | 2.0 | 4.0 | 0.00 | 0.01 | 0.00 | 91 | 1010.7 |
| 20260831083512 | 64 | 321 | 2.0 | 5.0 | 0.00 | 0.01 | 0.00 | 91 | 1010.7 |
| 20260831083027 | 64 | 333 | 3.0 | 5.0 | 0.00 | 0.01 | 0.00 | 91 | 1010.7 |
| 20260831083017 | 64 | 330 | 3.0 | 5.0 | 0.00 | 0.02 | 0.00 | 92 | 1006.5 |
| 20260831082511 | 65 | 338 | 1.0 | 2.0 | 0.00 | 0.01 | 0.00 | 91 | 1010.6 |
| 20260831082018 | 65 | 323 | 0.0 | 3.0 | 0.00 | 0.01 | 0.00 | 91 | 1010.3 |
| 20260831081530 | 65 | 276 | 0.0 | 4.0 | 0.00 | 0.01 | 0.00 | 91 | 1010.3 |
| 20260831081515 | 65 | 240 | 0.0 | 4.0 | 0.00 | 0.02 | 0.00 | 92 | 1006.3 |
| 20260831081016 | 65 | 306 | 1.0 | 5.0 | 0.00 | 0.01 | 0.00 | 91 | 1010.2 |
| 20260831080514 | 65 | 322 | 3.0 | 5.0 | 0.00 | 0.01 | 0.00 | 91 | 1010.2 |
| 20260831080032 | 65 | 329 | 3.0 | 5.0 | 0.00 | 0.02 | 0.00 | 92 | 1005.9 |
| 20260831075514 | 65 | 322 | 2.0 | 4.0 | 0.00 | 0.02 | 0.00 | 91 | 1010.1 |
| 20260831075012 | 66 | 313 | 2.0 | 5.0 | 0.00 | 0.02 | 0.00 | 91 | 1010.0 |
| 20260831074532 | 66 | 320 | 3.0 | 5.0 | 0.00 | 0.03 | 0.00 | 91 | 1010.1 |
| 20260831074521 | 66 | 303 | 3.0 | 5.0 | 0.00 | 0.07 | 0.00 | 91 | 1005.9 |
| 20260831074008 | 66 | 321 | 2.0 | 4.0 | 0.00 | 0.05 | 0.00 | 90 | 1010.0 |
| 20260831073511 | 66 | 328 | 2.0 | 4.0 | 0.00 | 0.06 | 0.00 | 90 | 1009.9 |
| 20260831073026 | 66 | 316 | 2.0 | 5.0 | 0.00 | 0.06 | 0.00 | 89 | 1009.9 |
| 20260831073013 | 67 | 304 | 2.0 | 5.0 | 0.00 | 0.07 | 0.00 | 89 | 1005.7 |
| 20260831072511 | 67 | 309 | 2.0 | 5.0 | 0.00 | 0.06 | 0.00 | 88 | 1009.8 |
| 20260831072014 | 67 | 336 | 3.0 | 5.0 | 0.00 | 0.07 | 0.00 | 88 | 1009.7 |
| 20260831071532 | 66 | 328 | 2.0 | 5.0 | 0.00 | 0.07 | 0.00 | 88 | 1009.7 |
| 20260831071510 | 66 | 328 | 2.0 | 5.0 | 0.00 | 0.07 | 0.00 | 88 | 1005.4 |
| 20260831071014 | 66 | 356 | 2.0 | 3.0 | 0.00 | 0.07 | 0.00 | 88 | 1009.7 |
| 20260831070515 | 66 | 323 | 1.0 | 2.0 | 0.00 | 0.07 | 0.00 | 89 | 1009.7 |
| 20260831070037 | 66 | 243 | 0.0 | 1.0 | 0.00 | 0.07 | 0.00 | 89 | 1009.8 |
| 20260831070009 | 66 | 243 | 0.0 | 1.0 | 0.00 | 0.07 | 0.00 | 89 | 1005.6 |
| 20260831065517 | 66 | 243 | 0.0 | 1.0 | 0.00 | 0.07 | 0.00 | 89 | 1009.9 |
| 20260831065014 | 66 | 243 | 1.0 | 2.0 | 0.00 | 0.07 | 0.00 | 89 | 1010.2 |
| 20260831064515 | 66 | 77 | 0.0 | 3.0 | 0.00 | 0.07 | 0.00 | 89 | 1009.8 |
| 20260831064508 | 66 | 77 | 0.0 | 3.0 | 0.00 | 0.07 | 0.00 | 90 | 1005.6 |
| 20260831064007 | 66 | 18 | 0.0 | 3.0 | 0.00 | 0.07 | 0.00 | 89 | 1010.1 |
| 20260831063505 | 66 | 232 | 1.0 | 2.0 | 0.00 | 0.07 | 0.00 | 88 | 1010.1 |
| 20260831063021 | 66 | 309 | 1.0 | 2.0 | 0.00 | 0.07 | 0.00 | 88 | 1010.0 |
| 20260831063005 | 66 | 309 | 0.0 | 2.0 | 0.00 | 0.07 | 0.00 | 89 | 1005.7 |
| 20260831062509 | 66 | 311 | 0.0 | 3.0 | 0.00 | 0.07 | 0.00 | 88 | 1009.7 |
| 20260831062011 | 67 | 321 | 0.0 | 4.0 | 0.00 | 0.07 | 0.00 | 88 | 1009.7 |
| 20260831061526 | 67 | 6 | 0.0 | 6.0 | 0.00 | 0.07 | 0.00 | 88 | 1009.5 |
| 20260831061504 | 67 | 6 | 0.0 | 5.0 | 0.00 | 0.07 | 0.00 | 88 | 1005.2 |
| 20260831061003 | 67 | 328 | 2.0 | 7.0 | 0.00 | 0.07 | 0.00 | 87 | 1009.5 |
| 20260831060504 | 67 | 318 | 2.0 | 7.0 | 0.00 | 0.07 | 0.00 | 87 | 1009.6 |
| 20260831060006 | 67 | 335 | 4.0 | 8.0 | 0.00 | 0.07 | 0.00 | 87 | 1009.7 |
| 20260831060001 | 67 | 3 | 4.0 | 8.0 | 0.00 | 0.07 | 0.00 | 87 | 1005.3 |
| 20260831055505 | 67 | 349 | 5.0 | 8.0 | 0.00 | 0.07 | 0.00 | 86 | 1009.7 |
| 20260831055004 | 67 | 325 | 5.0 | 8.0 | 0.00 | 0.07 | 0.00 | 86 | 1009.5 |
| 20260831054600 | 67 | 356 | 4.0 | 10.0 | 0.00 | 0.07 | 0.00 | 87 | 1005.4 |
| 20260831054511 | 67 | 332 | 4.0 | 10.0 | 0.00 | 0.07 | 0.00 | 86 | 1009.7 |
| 20260831054008 | 68 | 306 | 5.0 | 10.0 | 0.00 | 0.07 | 0.00 | 87 | 1009.7 |
| 20260831053512 | 68 | 338 | 6.0 | 14.0 | 0.00 | 0.07 | 0.00 | 86 | 1009.8 |
| 20260831053101 | 68 | 292 | 5.0 | 14.0 | 0.00 | 0.07 | 0.00 | 86 | 1005.7 |
| 20260831053020 | 68 | 297 | 5.0 | 14.0 | 0.00 | 0.07 | 0.00 | 86 | 1010.0 |
| 20260831052508 | 69 | 307 | 7.0 | 14.0 | 0.00 | 0.07 | 0.00 | 85 | 1009.9 |
| 20260831052011 | 70 | 279 | 8.0 | 14.0 | 0.00 | 0.07 | 0.00 | 87 | 1009.9 |
| 20260831051555 | 71 | 337 | 4.0 | 10.0 | 0.00 | 0.07 | 0.00 | 90 | 1005.5 |
| 20260831051523 | 71 | 295 | 3.0 | 10.0 | 0.00 | 0.07 | 0.00 | 90 | 1009.8 |
| 20260831051010 | 71 | 293 | 4.0 | 9.0 | 0.00 | 0.07 | 0.00 | 91 | 1009.8 |
| 20260831050512 | 71 | 239 | 3.0 | 8.0 | 0.00 | 0.07 | 0.00 | 93 | 1009.3 |
| 20260831050047 | 71 | 305 | 1.0 | 5.0 | 0.00 | 0.07 | 0.00 | 93 | 1004.9 |
| 20260831050028 | 71 | 205 | 2.0 | 5.0 | 0.00 | 0.07 | 0.00 | 93 | 1009.2 |
| 20260831045503 | 71 | 247 | 2.0 | 5.0 | 0.00 | 0.07 | 0.07 | 93 | 1009.0 |
| 20260831045004 | 71 | 290 | 1.0 | 4.0 | 0.00 | 0.07 | 0.07 | 93 | 1008.6 |
| 20260831044547 | 71 | 276 | 0.0 | 4.0 | 0.00 | 0.07 | 0.07 | 94 | 1004.1 |
| 20260831044506 | 71 | 288 | 0.0 | 4.0 | 0.00 | 0.07 | 0.07 | 93 | 1008.5 |
| 20260831044002 | 71 | 300 | 0.0 | 3.0 | 0.00 | 0.07 | 0.07 | 92 | 1008.4 |
| 20260831043505 | 71 | 243 | 1.0 | 2.0 | 0.00 | 0.07 | 0.07 | 92 | 1008.2 |
| 20260831043050 | 72 | 245 | 0.0 | 2.0 | 0.00 | 0.07 | 0.07 | 93 | 1003.8 |
| 20260831043013 | 72 | 255 | 0.0 | 2.0 | 0.00 | 0.07 | 0.07 | 93 | 1008.3 |
| 20260831042508 | 72 | 255 | 0.0 | 2.0 | 0.00 | 0.07 | 0.07 | 92 | 1008.2 |
| 20260831042005 | 72 | 323 | 0.0 | 1.0 | 0.00 | 0.07 | 0.07 | 92 | 1008.0 |
| 20260831041551 | 72 | 336 | 0.0 | 2.0 | 0.00 | 0.07 | 0.07 | 93 | 1003.4 |
| 20260831041519 | 72 | 304 | 0.0 | 2.0 | 0.00 | 0.07 | 0.07 | 92 | 1007.9 |
| 20260831041011 | 72 | 340 | 0.0 | 2.0 | 0.00 | 0.07 | 0.07 | 92 | 1007.9 |
| 20260831040511 | 72 | 309 | 0.0 | 1.0 | 0.00 | 0.07 | 0.07 | 92 | 1007.9 |
| 20260831040046 | 72 | 319 | 0.0 | 2.0 | 0.00 | 0.07 | 0.07 | 92 | 1003.4 |
| 20260831040023 | 72 | 319 | 1.0 | 2.0 | 0.00 | 0.07 | 0.07 | 92 | 1007.9 |
| 20260831035512 | 73 | 308 | 0.0 | 4.0 | 0.00 | 0.07 | 0.07 | 91 | 1007.7 |
| 20260831035013 | 73 | 314 | 2.0 | 4.0 | 0.00 | 0.07 | 0.07 | 91 | 1007.7 |
| 20260831034549 | 73 | 318 | 1.0 | 4.0 | 0.00 | 0.07 | 0.07 | 92 | 1003.3 |
| 20260831034534 | 73 | 308 | 2.0 | 5.0 | 0.00 | 0.07 | 0.07 | 92 | 1007.6 |
| 20260831034004 | 73 | 330 | 2.0 | 5.0 | 0.00 | 0.07 | 0.07 | 92 | 1007.5 |
| 20260831033504 | 73 | 61 | 2.0 | 5.0 | 0.00 | 0.07 | 0.07 | 91 | 1007.4 |
| 20260831033049 | 73 | 311 | 2.0 | 5.0 | 0.00 | 0.07 | 0.07 | 91 | 1003.6 |
| 20260831033012 | 74 | 295 | 2.0 | 4.0 | 0.00 | 0.07 | 0.07 | 90 | 1008.0 |
| 20260831032504 | 74 | 296 | 3.0 | 4.0 | 0.00 | 0.07 | 0.07 | 91 | 1007.6 |
| 20260831032007 | 74 | 348 | 2.0 | 5.0 | 0.00 | 0.07 | 0.07 | 91 | 1007.4 |
| 20260831031546 | 74 | 15 | 2.0 | 5.0 | 0.00 | 0.07 | 0.07 | 91 | 1003.0 |
| 20260831031519 | 74 | 30 | 2.0 | 5.0 | 0.00 | 0.07 | 0.07 | 90 | 1007.5 |
| 20260831031009 | 75 | 324 | 2.0 | 4.0 | 0.00 | 0.07 | 0.07 | 90 | 1007.5 |
| 20260831030509 | 75 | 6 | 2.0 | 4.0 | 0.00 | 0.07 | 0.07 | 90 | 1007.5 |
| 20260831030049 | 75 | 329 | 1.0 | 4.0 | 0.00 | 0.07 | 0.07 | 90 | 1002.9 |
| 20260831030018 | 75 | 358 | 2.0 | 4.0 | 0.00 | 0.07 | 0.07 | 90 | 1007.5 |
| 20260831025510 | 75 | 1 | 2.0 | 6.0 | 0.00 | 0.07 | 0.07 | 89 | 1007.5 |
| 20260831025010 | 75 | 7 | 3.0 | 6.0 | 0.00 | 0.07 | 0.07 | 89 | 1007.5 |
| 20260831024549 | 75 | 15 | 3.0 | 6.0 | 0.00 | 0.07 | 0.07 | 90 | 1002.7 |
| 20260831024525 | 75 | 17 | 3.0 | 6.0 | 0.00 | 0.07 | 0.07 | 89 | 1007.4 |
| 20260831024014 | 75 | 48 | 2.0 | 7.0 | 0.00 | 0.07 | 0.07 | 89 | 1007.1 |
| 20260831023518 | 75 | 20 | 3.0 | 7.0 | 0.00 | 0.07 | 0.07 | 89 | 1007.2 |
| 20260831023040 | 75 | 5 | 3.0 | 7.0 | 0.00 | 0.07 | 0.07 | 90 | 1002.6 |
| 20260831023029 | 75 | 339 | 3.0 | 7.0 | 0.00 | 0.07 | 0.07 | 89 | 1007.0 |
| 20260831022504 | 75 | 7 | 3.0 | 6.0 | 0.00 | 0.07 | 0.07 | 89 | 1007.0 |
| 20260831022006 | 75 | 338 | 2.0 | 6.0 | 0.00 | 0.07 | 0.07 | 89 | 1006.9 |
| 20260831021539 | 76 | 13 | 3.0 | 8.0 | 0.00 | 0.07 | 0.07 | 89 | 1002.5 |
| 20260831021511 | 75 | 14 | 3.0 | 8.0 | 0.00 | 0.07 | 0.07 | 89 | 1006.8 |
| 20260831021006 | 76 | 319 | 4.0 | 8.0 | 0.00 | 0.07 | 0.07 | 88 | 1006.8 |
| 20260831020506 | 76 | 317 | 3.0 | 6.0 | 0.00 | 0.07 | 0.07 | 88 | 1006.6 |
| 20260831020037 | 76 | 338 | 3.0 | 6.0 | 0.00 | 0.07 | 0.07 | 88 | 1002.1 |
| 20260831020015 | 76 | 333 | 4.0 | 6.0 | 0.00 | 0.07 | 0.07 | 87 | 1006.5 |
| 20260831015511 | 77 | 321 | 3.0 | 6.0 | 0.00 | 0.07 | 0.07 | 87 | 1006.6 |
| 20260831015010 | 77 | 313 | 3.0 | 6.0 | 0.00 | 0.07 | 0.07 | 86 | 1006.5 |
| 20260831014540 | 78 | 311 | 2.0 | 5.0 | 0.00 | 0.07 | 0.07 | 85 | 1001.8 |
| 20260831014523 | 78 | 310 | 3.0 | 5.0 | 0.00 | 0.07 | 0.07 | 85 | 1006.4 |
| 20260831014012 | 78 | 321 | 2.0 | 3.0 | 0.00 | 0.07 | 0.07 | 84 | 1006.2 |
| 20260831013517 | 79 | 307 | 2.0 | 3.0 | 0.00 | 0.07 | 0.07 | 83 | 1005.9 |
| 20260831013040 | 79 | 315 | 1.0 | 3.0 | 0.00 | 0.07 | 0.07 | 82 | 1001.1 |
| 20260831013030 | 80 | 318 | 1.0 | 2.0 | 0.00 | 0.07 | 0.07 | 82 | 1005.7 |
| 20260831012514 | 80 | 360 | 0.0 | 2.0 | 0.00 | 0.07 | 0.07 | 81 | 1005.4 |
| 20260831012014 | 80 | 356 | 1.0 | 2.0 | 0.00 | 0.07 | 0.07 | 81 | 1005.2 |
| 20260831011536 | 80 | 11 | 1.0 | 2.0 | 0.00 | 0.07 | 0.07 | 81 | 1000.4 |
| 20260831011531 | 80 | 332 | 1.0 | 2.0 | 0.00 | 0.07 | 0.07 | 80 | 1005.2 |
| 20260831011004 | 81 | 324 | 0.0 | 1.0 | 0.00 | 0.07 | 0.07 | 80 | 1005.0 |
| 20260831010506 | 81 | 321 | 0.0 | 1.0 | 0.00 | 0.07 | 0.07 | 79 | 1005.1 |
| 20260831010036 | 81 | 321 | 0.0 | 1.0 | 0.00 | 0.07 | 0.07 | 78 | 1005.1 |
| 20260831005509 | 82 | 320 | 0.0 | 2.0 | 0.00 | 0.07 | 0.07 | 77 | 1005.1 |
| 20260831005009 | 82 | 330 | 0.0 | 2.0 | 0.00 | 0.07 | 0.07 | 75 | 1005.2 |
| 20260831004538 | 83 | 37 | 0.0 | 2.0 | 0.00 | 0.07 | 0.07 | 74 | 1000.5 |
| 20260831004517 | 83 | 37 | 0.0 | 2.0 | 0.00 | 0.07 | 0.07 | 73 | 1005.2 |
| 20260831004011 | 83 | 255 | 0.0 | 2.0 | 0.00 | 0.07 | 0.07 | 70 | 1005.1 |
| 20260831003515 | 84 | 255 | 0.0 | 2.0 | 0.00 | 0.07 | 0.07 | 69 | 1005.3 |
| 20260831003033 | 84 | 259 | 0.0 | 2.0 | 0.00 | 0.07 | 0.07 | 69 | 1000.7 |
| 20260831003030 | 84 | 259 | 1.0 | 2.0 | 0.00 | 0.07 | 0.07 | 68 | 1005.4 |
| 20260831002511 | 85 | 258 | 1.0 | 2.0 | 0.00 | 0.07 | 0.07 | 67 | 1005.5 |
| 20260831002014 | 85 | 264 | 1.0 | 2.0 | 0.00 | 0.07 | 0.07 | 66 | 1005.6 |
| 20260831001530 | 86 | 258 | 1.0 | 3.0 | 0.00 | 0.07 | 0.07 | 67 | 1001.1 |
| 20260831001012 | 86 | 253 | 1.0 | 3.0 | 0.00 | 0.07 | 0.07 | 66 | 1005.7 |
| 20260831000516 | 86 | 256 | 2.0 | 3.0 | 0.00 | 0.07 | 0.07 | 65 | 1005.8 |
| 20260831000031 | 86 | 243 | 1.0 | 3.0 | 0.00 | 0.07 | 0.07 | 65 | 1005.7 |
| 20260831000029 | 86 | 243 | 1.0 | 3.0 | 0.00 | 0.07 | 0.07 | 66 | 1001.1 |
| 20260830235505 | 87 | 231 | 1.0 | 3.0 | 0.00 | 0.07 | 0.07 | 64 | 1005.8 |
| 20260830235007 | 86 | 257 | 1.0 | 4.0 | 0.00 | 0.07 | 0.07 | 65 | 1005.8 |
| 20260830234528 | 86 | 252 | 1.0 | 4.0 | 0.00 | 0.07 | 0.07 | 66 | 1001.3 |
| 20260830234515 | 86 | 281 | 2.0 | 4.0 | 0.00 | 0.07 | 0.07 | 66 | 1005.9 |
| 20260830234008 | 86 | 260 | 2.0 | 4.0 | 0.00 | 0.07 | 0.07 | 65 | 1006.0 |
| 20260830233509 | 86 | 264 | 2.0 | 5.0 | 0.00 | 0.07 | 0.07 | 65 | 1006.1 |
| 20260830233030 | 86 | 260 | 3.0 | 5.0 | 0.00 | 0.07 | 0.07 | 64 | 1006.1 |
| 20260830232512 | 87 | 259 | 2.0 | 5.0 | 0.00 | 0.07 | 0.07 | 65 | 1006.1 |
| 20260830232012 | 87 | 252 | 2.0 | 5.0 | 0.00 | 0.07 | 0.07 | 63 | 1006.1 |
| 20260830231528 | 87 | 265 | 2.0 | 5.0 | 0.00 | 0.07 | 0.07 | 62 | 1001.2 |
| 20260830231012 | 87 | 274 | 2.0 | 4.0 | 0.00 | 0.07 | 0.07 | 62 | 1005.7 |
| 20260830230513 | 87 | 236 | 0.0 | 5.0 | 0.00 | 0.07 | 0.07 | 64 | 1005.7 |
| 20260830230029 | 86 | 264 | 2.0 | 6.0 | 0.00 | 0.07 | 0.07 | 63 | 1005.7 |
| 20260830230025 | 86 | 255 | 1.0 | 5.0 | 0.00 | 0.07 | 0.07 | 64 | 1001.2 |
| 20260830225515 | 86 | 259 | 3.0 | 6.0 | 0.00 | 0.07 | 0.07 | 67 | 1005.8 |
| 20260830225013 | 87 | 278 | 1.0 | 5.0 | 0.00 | 0.07 | 0.07 | 67 | 1005.9 |
| 20260830224532 | 87 | 229 | 2.0 | 5.0 | 0.00 | 0.07 | 0.07 | 66 | 1006.0 |
| 20260830224525 | 87 | 271 | 1.0 | 5.0 | 0.00 | 0.07 | 0.07 | 67 | 1001.4 |
| 20260830224005 | 86 | 250 | 3.0 | 8.0 | 0.00 | 0.07 | 0.07 | 64 | 1006.1 |
| 20260830223507 | 86 | 238 | 3.0 | 8.0 | 0.00 | 0.07 | 0.07 | 64 | 1006.1 |
| 20260830223036 | 86 | 236 | 3.0 | 8.0 | 0.00 | 0.07 | 0.07 | 63 | 1006.2 |
| 20260830223031 | 86 | 260 | 4.0 | 8.0 | 0.00 | 0.07 | 0.07 | 62 | 1001.5 |
| 20260830222509 | 86 | 226 | 3.0 | 8.0 | 0.00 | 0.07 | 0.07 | 62 | 1006.3 |
| 20260830222013 | 86 | 237 | 4.0 | 9.0 | 0.00 | 0.07 | 0.07 | 62 | 1006.2 |
| 20260830221527 | 87 | 235 | 4.0 | 9.0 | 0.00 | 0.07 | 0.07 | 60 | 1006.3 |
| 20260830221524 | 87 | 243 | 3.0 | 9.0 | 0.00 | 0.07 | 0.07 | 62 | 1001.5 |
| 20260830221012 | 87 | 228 | 4.0 | 9.0 | 0.00 | 0.07 | 0.07 | 60 | 1006.3 |
| 20260830220513 | 87 | 214 | 5.0 | 9.0 | 0.00 | 0.07 | 0.07 | 60 | 1006.2 |
| 20260830220033 | 87 | 214 | 5.0 | 10.0 | 0.00 | 0.07 | 0.07 | 60 | 1006.1 |
| 20260830220028 | 87 | 245 | 4.0 | 10.0 | 0.00 | 0.07 | 0.07 | 61 | 1001.3 |
| 20260830215516 | 87 | 238 | 4.0 | 10.0 | 0.00 | 0.07 | 0.07 | 62 | 1006.0 |
| 20260830215016 | 87 | 186 | 5.0 | 10.0 | 0.00 | 0.07 | 0.07 | 61 | 1006.0 |
| 20260830214535 | 87 | 226 | 4.0 | 11.0 | 0.00 | 0.07 | 0.07 | 61 | 1005.9 |
| 20260830214523 | 87 | 224 | 4.0 | 11.0 | 0.00 | 0.07 | 0.07 | 60 | 1001.4 |
| 20260830214016 | 87 | 220 | 6.0 | 11.0 | 0.00 | 0.07 | 0.07 | 60 | 1006.1 |
| 20260830213514 | 87 | 264 | 4.0 | 9.0 | 0.00 | 0.07 | 0.07 | 60 | 1006.0 |
| 20260830213032 | 87 | 223 | 4.0 | 9.0 | 0.00 | 0.07 | 0.07 | 61 | 1006.0 |
| 20260830213021 | 87 | 252 | 4.0 | 9.0 | 0.00 | 0.07 | 0.07 | 61 | 1001.3 |
| 20260830212508 | 87 | 207 | 5.0 | 10.0 | 0.00 | 0.07 | 0.07 | 62 | 1005.9 |
| 20260830212009 | 87 | 262 | 6.0 | 10.0 | 0.00 | 0.07 | 0.07 | 61 | 1005.9 |
| 20260830211521 | 87 | 227 | 5.0 | 9.0 | 0.00 | 0.07 | 0.07 | 64 | 1005.9 |
| 20260830211010 | 87 | 224 | 6.0 | 9.0 | 0.00 | 0.07 | 0.07 | 62 | 1005.9 |
| 20260830210511 | 87 | 238 | 3.0 | 8.0 | 0.00 | 0.07 | 0.07 | 63 | 1005.9 |
| 20260830210030 | 87 | 228 | 4.0 | 9.0 | 0.00 | 0.07 | 0.07 | 64 | 1005.8 |
| 20260830210018 | 87 | 205 | 4.0 | 9.0 | 0.00 | 0.07 | 0.07 | 64 | 1001.3 |
| 20260830205513 | 87 | 203 | 5.0 | 9.0 | 0.00 | 0.07 | 0.07 | 62 | 1005.8 |
| 20260830205014 | 87 | 203 | 5.0 | 9.0 | 0.00 | 0.07 | 0.07 | 63 | 1005.8 |
| 20260830204528 | 87 | 229 | 5.0 | 9.0 | 0.00 | 0.07 | 0.07 | 61 | 1005.8 |
| 20260830204517 | 88 | 189 | 5.0 | 9.0 | 0.00 | 0.07 | 0.07 | 62 | 1001.3 |
| 20260830204012 | 87 | 246 | 6.0 | 8.0 | 0.00 | 0.07 | 0.07 | 60 | 1005.9 |
| 20260830203517 | 87 | 231 | 4.0 | 7.0 | 0.00 | 0.07 | 0.07 | 63 | 1006.0 |
| 20260830203046 | 87 | 213 | 4.0 | 9.0 | 0.00 | 0.07 | 0.07 | 65 | 1006.1 |
| 20260830203015 | 87 | 222 | 3.0 | 9.0 | 0.00 | 0.07 | 0.07 | 65 | 1001.3 |
| 20260830202516 | 87 | 195 | 3.0 | 9.0 | 0.00 | 0.07 | 0.07 | 69 | 1006.1 |
| 20260830202016 | 87 | 237 | 5.0 | 10.0 | 0.00 | 0.07 | 0.07 | 66 | 1006.2 |
| 20260830201516 | 87 | 207 | 4.0 | 10.0 | 0.00 | 0.07 | 0.07 | 70 | 1006.2 |
| 20260830201513 | 87 | 243 | 4.0 | 10.0 | 0.00 | 0.07 | 0.07 | 71 | 1001.5 |
| 20260830201012 | 87 | 239 | 4.0 | 8.0 | 0.00 | 0.07 | 0.07 | 68 | 1006.2 |
| 20260830200510 | 86 | 236 | 3.0 | 8.0 | 0.00 | 0.07 | 0.07 | 72 | 1006.2 |
| 20260830200020 | 86 | 250 | 4.0 | 8.0 | 0.00 | 0.07 | 0.07 | 70 | 1006.2 |
| 20260830200013 | 86 | 222 | 3.0 | 8.0 | 0.00 | 0.07 | 0.07 | 71 | 1001.5 |
| 20260830195509 | 86 | 232 | 2.0 | 8.0 | 0.00 | 0.07 | 0.07 | 71 | 1006.4 |
| 20260830195012 | 86 | 232 | 5.0 | 10.0 | 0.00 | 0.07 | 0.07 | 72 | 1006.6 |
| 20260830194526 | 86 | 253 | 5.0 | 10.0 | 0.00 | 0.07 | 0.07 | 72 | 1006.6 |
| 20260830194511 | 86 | 236 | 4.0 | 10.0 | 0.00 | 0.07 | 0.07 | 73 | 1001.8 |
| 20260830194016 | 86 | 224 | 5.0 | 12.0 | 0.00 | 0.07 | 0.07 | 73 | 1006.5 |
| 20260830193513 | 86 | 259 | 5.0 | 12.0 | 0.00 | 0.07 | 0.07 | 71 | 1006.4 |
| 20260830193011 | 86 | 238 | 4.0 | 11.0 | 0.00 | 0.07 | 0.07 | 73 | 1001.8 |
| 20260830192505 | 87 | 231 | 5.0 | 11.0 | 0.00 | 0.07 | 0.07 | 70 | 1006.4 |
| 20260830192004 | 87 | 214 | 5.0 | 7.0 | 0.00 | 0.07 | 0.07 | 73 | 1006.4 |
| 20260830191513 | 86 | 288 | 3.0 | 7.0 | 0.00 | 0.07 | 0.07 | 68 | 1006.4 |
| 20260830191509 | 86 | 278 | 3.0 | 7.0 | 0.00 | 0.07 | 0.07 | 69 | 1001.8 |
| 20260830191007 | 86 | 252 | 3.0 | 8.0 | 0.00 | 0.07 | 0.07 | 70 | 1006.4 |
| 20260830190508 | 87 | 231 | 5.0 | 8.0 | 0.00 | 0.07 | 0.07 | 68 | 1006.4 |
| 20260830190025 | 87 | 264 | 4.0 | 7.0 | 0.00 | 0.07 | 0.07 | 69 | 1006.2 |
| 20260830190008 | 87 | 253 | 3.0 | 7.0 | 0.00 | 0.07 | 0.07 | 69 | 1001.6 |
| 20260830185508 | 87 | 259 | 3.0 | 7.0 | 0.00 | 0.07 | 0.07 | 69 | 1006.3 |
| 20260830185010 | 87 | 250 | 4.0 | 7.0 | 0.00 | 0.07 | 0.07 | 71 | 1006.2 |
| 20260830184532 | 87 | 187 | 2.0 | 4.0 | 0.00 | 0.07 | 0.07 | 71 | 1006.2 |
| 20260830184507 | 87 | 222 | 2.0 | 4.0 | 0.00 | 0.07 | 0.07 | 71 | 1001.7 |
| 20260830184011 | 87 | 148 | 2.0 | 6.0 | 0.00 | 0.07 | 0.07 | 70 | 1006.3 |
| 20260830183512 | 86 | 236 | 2.0 | 6.0 | 0.00 | 0.07 | 0.07 | 71 | 1006.3 |
| 20260830183032 | 86 | 239 | 3.0 | 6.0 | 0.00 | 0.07 | 0.07 | 70 | 1006.3 |
| 20260830183005 | 86 | 221 | 3.0 | 6.0 | 0.00 | 0.07 | 0.07 | 70 | 1001.7 |
| 20260830182513 | 86 | 217 | 3.0 | 6.0 | 0.00 | 0.07 | 0.07 | 70 | 1006.3 |
| 20260830182021 | 86 | 214 | 4.0 | 6.0 | 0.00 | 0.07 | 0.07 | 71 | 1006.3 |
| 20260830181508 | 85 | 224 | 2.0 | 7.0 | 0.00 | 0.07 | 0.07 | 70 | 1006.3 |
| 20260830181502 | 85 | 252 | 2.0 | 6.0 | 0.00 | 0.07 | 0.07 | 72 | 1001.8 |
| 20260830181004 | 86 | 206 | 3.0 | 8.0 | 0.00 | 0.07 | 0.07 | 70 | 1006.5 |
| 20260830180504 | 86 | 134 | 3.0 | 8.0 | 0.00 | 0.07 | 0.07 | 74 | 1006.6 |
| 20260830180059 | 85 | 212 | 4.0 | 8.0 | 0.00 | 0.07 | 0.07 | 71 | 1002.1 |
| 20260830180019 | 85 | 211 | 4.0 | 8.0 | 0.00 | 0.07 | 0.07 | 73 | 1006.8 |
| 20260830175508 | 85 | 155 | 4.0 | 7.0 | 0.00 | 0.07 | 0.07 | 72 | 1006.9 |
| 20260830175009 | 84 | 169 | 1.0 | 5.0 | 0.00 | 0.07 | 0.07 | 75 | 1006.9 |
| 20260830174607 | 83 | 205 | 2.0 | 6.0 | 0.00 | 0.07 | 0.07 | 74 | 1002.5 |
| 20260830174523 | 83 | 72 | 3.0 | 6.0 | 0.00 | 0.07 | 0.07 | 75 | 1006.9 |
| 20260830174008 | 83 | 83 | 3.0 | 6.0 | 0.00 | 0.07 | 0.07 | 73 | 1006.9 |
| 20260830173510 | 83 | 154 | 2.0 | 7.0 | 0.00 | 0.07 | 0.07 | 74 | 1007.1 |
| 20260830173053 | 83 | 161 | 3.0 | 8.0 | 0.00 | 0.07 | 0.07 | 75 | 1002.7 |
| 20260830173049 | 83 | 140 | 4.0 | 8.0 | 0.00 | 0.07 | 0.07 | 73 | 1007.1 |
| 20260830172515 | 83 | 148 | 4.0 | 9.0 | 0.00 | 0.07 | 0.07 | 75 | 1007.1 |
| 20260830172014 | 83 | 84 | 3.0 | 9.0 | 0.00 | 0.07 | 0.07 | 76 | 1007.0 |
| 20260830171557 | 82 | 119 | 4.0 | 10.0 | 0.00 | 0.07 | 0.07 | 77 | 1002.7 |
| 20260830171532 | 82 | 146 | 5.0 | 10.0 | 0.00 | 0.07 | 0.07 | 78 | 1007.1 |
| 20260830171016 | 81 | 146 | 5.0 | 10.0 | 0.00 | 0.07 | 0.07 | 77 | 1007.0 |
| 20260830170514 | 81 | 106 | 5.0 | 10.0 | 0.00 | 0.07 | 0.07 | 78 | 1007.0 |
| 20260830170045 | 80 | 172 | 6.0 | 10.0 | 0.00 | 0.07 | 0.07 | 80 | 1002.5 |
| 20260830170008 | 80 | 92 | 6.0 | 10.0 | 0.00 | 0.07 | 0.07 | 80 | 1007.0 |
| 20260830165503 | 79 | 54 | 6.0 | 10.0 | 0.00 | 0.07 | 0.07 | 80 | 1007.0 |
| 20260830165006 | 78 | 67 | 4.0 | 12.0 | 0.00 | 0.07 | 0.07 | 83 | 1007.1 |
| 20260830164546 | 78 | 63 | 6.0 | 12.0 | 0.00 | 0.07 | 0.07 | 82 | 1002.8 |
| 20260830164513 | 78 | 35 | 6.0 | 12.0 | 0.00 | 0.07 | 0.07 | 81 | 1007.3 |
| 20260830164009 | 77 | 51 | 6.0 | 12.0 | 0.00 | 0.07 | 0.07 | 82 | 1007.4 |
| 20260830163508 | 78 | 43 | 7.0 | 13.0 | 0.00 | 0.07 | 0.07 | 81 | 1007.3 |
| 20260830163050 | 78 | 59 | 7.0 | 13.0 | 0.00 | 0.07 | 0.07 | 80 | 1003.0 |
| 20260830163026 | 78 | 59 | 9.0 | 13.0 | 0.00 | 0.07 | 0.07 | 80 | 1007.3 |
| 20260830162512 | 78 | 61 | 5.0 | 10.0 | 0.00 | 0.07 | 0.07 | 81 | 1007.3 |
| 20260830162011 | 77 | 62 | 4.0 | 10.0 | 0.00 | 0.07 | 0.07 | 81 | 1007.4 |
| 20260830161541 | 77 | 46 | 5.0 | 8.0 | 0.00 | 0.07 | 0.07 | 82 | 1003.2 |
| 20260830161526 | 77 | 49 | 4.0 | 8.0 | 0.00 | 0.07 | 0.07 | 82 | 1007.4 |
| 20260830161012 | 77 | 58 | 5.0 | 8.0 | 0.00 | 0.07 | 0.07 | 82 | 1007.5 |
| 20260830160513 | 76 | 108 | 2.0 | 8.0 | 0.00 | 0.07 | 0.07 | 84 | 1007.5 |
| 20260830160053 | 76 | 54 | 3.0 | 8.0 | 0.00 | 0.07 | 0.07 | 84 | 1003.3 |
| 20260830160035 | 76 | 65 | 4.0 | 8.0 | 0.00 | 0.07 | 0.07 | 84 | 1007.5 |
| 20260830155517 | 76 | 46 | 2.0 | 9.0 | 0.00 | 0.07 | 0.07 | 84 | 1007.5 |
| 20260830155016 | 76 | 68 | 4.0 | 9.0 | 0.00 | 0.07 | 0.07 | 84 | 1007.4 |
| 20260830154533 | 75 | 32 | 3.0 | 9.0 | 0.00 | 0.07 | 0.07 | 84 | 1003.2 |
| 20260830154518 | 75 | 49 | 3.0 | 9.0 | 0.00 | 0.07 | 0.07 | 84 | 1007.4 |
| 20260830154007 | 75 | 115 | 5.0 | 9.0 | 0.00 | 0.07 | 0.07 | 84 | 1007.4 |
| 20260830153508 | 75 | 69 | 2.0 | 8.0 | 0.00 | 0.07 | 0.07 | 85 | 1007.4 |
| 20260830153031 | 75 | 68 | 3.0 | 8.0 | 0.00 | 0.07 | 0.07 | 85 | 1003.1 |
| 20260830153016 | 75 | 52 | 3.0 | 9.0 | 0.00 | 0.07 | 0.07 | 84 | 1007.4 |
| 20260830152511 | 75 | 49 | 6.0 | 9.0 | 0.00 | 0.07 | 0.07 | 84 | 1007.4 |
| 20260830152007 | 74 | 60 | 6.0 | 9.0 | 0.00 | 0.07 | 0.07 | 85 | 1007.3 |
| 20260830151529 | 74 | 46 | 4.0 | 9.0 | 0.00 | 0.07 | 0.07 | 87 | 1003.1 |
| 20260830151523 | 74 | 41 | 5.0 | 9.0 | 0.00 | 0.07 | 0.07 | 86 | 1007.4 |
| 20260830151013 | 74 | 18 | 6.0 | 9.0 | 0.00 | 0.07 | 0.07 | 86 | 1007.3 |
| 20260830150510 | 74 | 64 | 4.0 | 8.0 | 0.00 | 0.07 | 0.07 | 86 | 1007.2 |
| 20260830150037 | 74 | 68 | 4.0 | 8.0 | 0.00 | 0.07 | 0.07 | 86 | 1007.3 |
| 20260830150027 | 74 | 37 | 4.0 | 8.0 | 0.00 | 0.07 | 0.07 | 87 | 1003.0 |
| 20260830145512 | 74 | 58 | 4.0 | 10.0 | 0.00 | 0.07 | 0.07 | 86 | 1007.2 |